Change the Weather History Date:

Monday, January 7, 2013

  Actual Average (KPYM) Record (KPYM)
Temperature  
Mean Temperature 32 °F -  
Max Temperature 39 °F 36 °F 60 °F (2012)
Min Temperature 26 °F 18 °F 3 °F (1999)
Degree Days  
Heating Degree Days 32    
Moisture  
Dew Point 28 °F    
Average Humidity 84    
Maximum Humidity 100    
Minimum Humidity 70    
Precipitation  
Precipitation 0.00 in - - ()
Sea Level Pressure  
Sea Level Pressure 30.25 in    
Wind  
Wind Speed 5 mph (WNW)    
Max Wind Speed 13 mph    
Max Gust Speed 22 mph    
Visibility 9 miles    
Events      
Averages and records for this station are not official NWS values.
T = Trace of Precipitation, MM = Missing Value Source: NWS Daily Summary

Daily Weather History Graph

Daily Weather History Graph

Search for Another Location

Airport or City:

Trip Planner

Search our weather history database for the weather conditions in past years. The results will help you decide how hot, cold, wet, or windy it might be!

Date:

Astronomy

Jan. 07, 2013 Rise Set
Actual Time 7:10 AM EST 4:27 PM EST
Civil Twilight 6:39 AM EST 4:58 PM EST
Nautical Twilight 6:04 AM EST 5:33 PM EST
Astronomical Twilight 5:30 AM EST 6:07 PM EST
Moon 2:29 AM EST (1/7) 12:37 PM EST (1/7)
Length of Visible Light 10h 19m
Length of Day
9h 16m
Waning Crescent, 23% of the Moon is Illuminated
Jan 7
Waning Crescent
Jan 11
New
Jan 18
First Quarter
Jan 26
Full
Feb 3
Last Quarter

Hourly Weather History & Observations

Time (EST) Temp. Windchill Dew Point Humidity Pressure Visibility Wind Dir Wind Speed Gust Speed Precip Events Conditions
12:15 AM 33.8 °F 28.6 °F 30.2 °F 87% 29.98 in 10.0 mi WSW 5.8 mph - N/A   Overcast
12:35 AM 33.8 °F 30.8 °F 30.2 °F 87% 29.98 in 10.0 mi WSW 3.5 mph - N/A   Mostly Cloudy
1:15 AM 33.8 °F 28.6 °F 30.2 °F 87% 30.00 in 10.0 mi WSW 5.8 mph - N/A   Scattered Clouds
1:35 AM 32.0 °F 27.5 °F 30.2 °F 93% 30.00 in 10.0 mi West 4.6 mph - N/A   Scattered Clouds
1:55 AM 33.8 °F 28.6 °F 30.2 °F 87% 30.01 in 10.0 mi WSW 5.8 mph - N/A   Mostly Cloudy
2:15 AM 32.0 °F 27.5 °F 30.2 °F 93% 30.01 in 10.0 mi WSW 4.6 mph - N/A   Mostly Cloudy
2:35 AM 32.0 °F 26.4 °F 30.2 °F 93% 30.02 in 10.0 mi WSW 5.8 mph - N/A   Partly Cloudy
2:55 AM 32.0 °F 27.5 °F 28.4 °F 87% 30.02 in 10.0 mi WSW 4.6 mph - N/A   Clear
3:15 AM 32.0 °F 27.5 °F 28.4 °F 87% 30.02 in 10.0 mi WSW 4.6 mph - N/A   Clear
3:35 AM 32.0 °F 27.5 °F 28.4 °F 87% 30.02 in 10.0 mi WSW 4.6 mph - N/A   Clear
3:55 AM 32.0 °F 27.5 °F 28.4 °F 87% 30.02 in 10.0 mi WSW 4.6 mph - N/A   Clear
4:15 AM 32.0 °F 27.5 °F 28.4 °F 87% 30.03 in 10.0 mi WSW 4.6 mph - N/A   Clear
4:35 AM 32.0 °F 27.5 °F 28.4 °F 87% 30.03 in 10.0 mi West 4.6 mph - N/A   Clear
4:55 AM 32.0 °F 27.5 °F 28.4 °F 87% 30.04 in 10.0 mi West 4.6 mph - N/A   Clear
5:15 AM 32.0 °F 27.5 °F 28.4 °F 87% 30.05 in 10.0 mi WSW 4.6 mph - N/A   Clear
5:35 AM 32.0 °F 26.4 °F 28.4 °F 87% 30.06 in 10.0 mi West 5.8 mph - N/A   Clear
5:55 AM 32.0 °F 26.4 °F 28.4 °F 87% 30.07 in 10.0 mi WSW 5.8 mph - N/A   Scattered Clouds
6:15 AM 32.0 °F 25.6 °F 28.4 °F 87% 30.08 in 10.0 mi WSW 6.9 mph - N/A   Mostly Cloudy
6:35 AM 32.0 °F 26.4 °F 28.4 °F 87% 30.09 in 10.0 mi West 5.8 mph - N/A   Partly Cloudy
6:55 AM 32.0 °F 25.6 °F 28.4 °F 87% 30.11 in 10.0 mi West 6.9 mph - N/A   Clear
7:15 AM 32.0 °F 25.6 °F 28.4 °F 87% 30.12 in 10.0 mi West 6.9 mph - N/A   Clear
7:35 AM 33.8 °F 28.6 °F 28.4 °F 81% 30.14 in 10.0 mi West 5.8 mph - N/A   Clear
7:55 AM 33.8 °F 30.8 °F 30.2 °F 87% 30.15 in 10.0 mi West 3.5 mph - N/A   Clear
8:35 AM 37.4 °F 32.8 °F 30.2 °F 75% 30.18 in 10.0 mi WNW 5.8 mph - N/A   Clear
8:55 AM 37.4 °F 32.1 °F 30.2 °F 75% 30.20 in 10.0 mi NW 6.9 mph - N/A   Clear
9:15 AM 39.2 °F 34.2 °F 30.2 °F 70% 30.21 in 10.0 mi WNW 6.9 mph - N/A   Clear
9:35 AM 39.2 °F 33.6 °F 32.0 °F 75% 30.23 in 10.0 mi NNW 8.1 mph - N/A   Clear
9:55 AM 39.2 °F 32.5 °F 32.0 °F 75% 30.24 in 10.0 mi NNW 10.4 mph 18.4 mph N/A   Clear
10:15 AM 39.2 °F 31.6 °F 30.2 °F 70% 30.25 in 10.0 mi NW 12.7 mph 21.9 mph N/A   Clear
10:35 AM 39.2 °F 33.0 °F 30.2 °F 70% 30.26 in 10.0 mi NW 9.2 mph 18.4 mph N/A   Partly Cloudy
10:55 AM 39.2 °F 32.5 °F 30.2 °F 70% 30.26 in 10.0 mi North 10.4 mph 17.3 mph N/A   Partly Cloudy
11:15 AM 37.4 °F 29.8 °F 30.2 °F 75% 30.26 in 10.0 mi NW 11.5 mph 18.4 mph N/A   Mostly Cloudy
11:55 AM 37.4 °F 29.8 °F 30.2 °F 75% 30.28 in 10.0 mi NNW 11.5 mph 17.3 mph N/A   Mostly Cloudy
12:15 PM 37.4 °F 30.3 °F 30.2 °F 75% 30.28 in 10.0 mi NNW 10.4 mph - N/A   Mostly Cloudy
12:35 PM 39.2 °F 33.0 °F 30.2 °F 70% 30.29 in 10.0 mi NNW 9.2 mph 16.1 mph N/A   Partly Cloudy
12:55 PM 39.2 °F 33.0 °F 30.2 °F 70% 30.30 in 10.0 mi North 9.2 mph - N/A   Partly Cloudy
1:15 PM 37.4 °F 32.1 °F 30.2 °F 75% 30.30 in 10.0 mi North 6.9 mph - N/A   Mostly Cloudy
1:35 PM 37.4 °F 31.4 °F 30.2 °F 75% 30.32 in 10.0 mi North 8.1 mph - N/A   Overcast
1:55 PM 37.4 °F 32.8 °F 30.2 °F 75% 30.33 in 10.0 mi North 5.8 mph - N/A   Overcast
2:15 PM 37.4 °F 32.8 °F 30.2 °F 75% 30.34 in 10.0 mi North 5.8 mph - N/A   Overcast
2:35 PM 37.4 °F 33.8 °F 30.2 °F 75% 30.34 in 10.0 mi North 4.6 mph - N/A   Overcast
2:55 PM 37.4 °F 33.8 °F 28.4 °F 70% 30.35 in 10.0 mi NNE 4.6 mph - N/A   Mostly Cloudy
3:15 PM 37.4 °F 32.8 °F 28.4 °F 70% 30.37 in 10.0 mi North 5.8 mph - N/A   Partly Cloudy
3:35 PM 35.6 °F 31.7 °F 28.4 °F 75% 30.37 in 10.0 mi NNE 4.6 mph - N/A   Partly Cloudy
3:55 PM 35.6 °F 32.8 °F 28.4 °F 75% 30.37 in 10.0 mi North 3.5 mph - N/A   Partly Cloudy
4:15 PM 35.6 °F 32.8 °F 28.4 °F 75% 30.38 in 10.0 mi NNE 3.5 mph - N/A   Clear
4:35 PM 33.8 °F 30.8 °F 28.4 °F 81% 30.38 in 10.0 mi North 3.5 mph - N/A   Clear
4:55 PM 32.0 °F - 28.4 °F 87% 30.39 in 10.0 mi Calm Calm - N/A   Clear
5:15 PM 32.0 °F - 28.4 °F 87% 30.39 in 10.0 mi Calm Calm - N/A   Clear
5:35 PM 30.2 °F - 28.4 °F 93% 30.40 in 10.0 mi Calm Calm - N/A   Clear
5:55 PM 30.2 °F - 26.6 °F 86% 30.41 in 10.0 mi Calm Calm - N/A   Clear
6:15 PM 30.2 °F - 26.6 °F 86% 30.41 in 10.0 mi Calm Calm - N/A   Light Freezing Rain
6:35 PM 28.4 °F - 26.6 °F 93% 30.41 in 5.0 mi Calm Calm - N/A   Light Freezing Rain
6:55 PM 28.4 °F 24.6 °F 26.6 °F 93% 30.42 in 1.8 mi West 3.5 mph - N/A   Light Freezing Rain
7:15 PM 28.4 °F - 26.6 °F 93% 30.42 in 2.0 mi Calm Calm - N/A   Light Freezing Rain
7:35 PM 28.4 °F - 26.6 °F 93% 30.42 in 4.0 mi Calm Calm - N/A   Light Freezing Rain
7:55 PM 28.4 °F - 26.6 °F 93% 30.42 in 7.0 mi Calm Calm - N/A   Light Freezing Rain
8:15 PM 26.6 °F - 26.6 °F 100% 30.42 in 10.0 mi Calm Calm - N/A   Light Freezing Rain
8:35 PM 26.6 °F - 24.8 °F 93% 30.41 in 10.0 mi Calm Calm - N/A   Light Freezing Rain
8:55 PM 26.6 °F - 24.8 °F 93% 30.42 in 10.0 mi Calm Calm - N/A   Light Freezing Rain
9:15 PM 26.6 °F - 24.8 °F 93% 30.41 in 10.0 mi Calm Calm - N/A   Light Freezing Rain
9:35 PM 26.6 °F - 24.8 °F 93% 30.41 in 10.0 mi Calm Calm - N/A   Light Freezing Rain
9:55 PM 26.6 °F 22.6 °F 24.8 °F 93% 30.41 in 5.0 mi South 3.5 mph - N/A   Light Freezing Rain
10:15 PM 26.6 °F 22.6 °F 23.0 °F 86% 30.41 in 5.0 mi South 3.5 mph - N/A   Light Freezing Rain
10:35 PM 26.6 °F 22.6 °F 24.8 °F 93% 30.41 in 9.0 mi South 3.5 mph - N/A   Light Freezing Rain
10:55 PM 26.6 °F 21.2 °F 23.0 °F 86% 30.41 in 10.0 mi South 4.6 mph - N/A   Light Freezing Rain
11:15 PM 28.4 °F 24.6 °F 26.6 °F 93% 30.40 in 10.0 mi South 3.5 mph - N/A   Light Freezing Rain
11:35 PM 26.6 °F - 24.8 °F 93% 30.40 in 10.0 mi Calm Calm - N/A   Light Freezing Rain
11:55 PM 26.6 °F 22.6 °F 23.0 °F 86% 30.40 in 10.0 mi South 3.5 mph - N/A   Light Freezing Rain